This demonstration page uses our WeatherBlox Daily Observations layout. Learn more.

Left ArrowRight Arrow

44.89941, -97.11507

Hourly Observations for November 8, 2019

Temp ( °F °C ) Dew Point ( °F °C ) Humidity (%) Winds ( mph kmh ) Pressure ( in mb ) Visibility ( mi km ) Precip ( " mm )
12:26 am 00:26 Partly Cloudy 21 -6.1 16 -8.9 81 81 SE 6 9 30.46 1031 10 16 0.00 0.00
12:53 am 00:53 Clear 21 -6.1 16 -8.9 81 81 SSE 6 9 30.40 1030 10 16 0.00 0.00
1:53 am 01:53 Clear 20 -6.7 14 -10 78 78 SSE 9 15 30.37 1029 10 16 0.00 0.00
2:53 am 02:53 Clear 18 -7.8 14 -10 84 84 SSE 7 11 30.35 1028 10 16 0.00 0.00
3:53 am 03:53 Clear 18 -7.8 14 -10 84 84 SSE 8 13 30.33 1027 10 16 0.00 0.00
4:53 am 04:53 Clear 17 -8.3 13 -10.6 84 84 SSE 7 11 30.30 1026 10 16 0.00 0.00
5:53 am 05:53 Clear 18 -7.8 14 -10 84 84 SSE 10 17 30.27 1025 10 16 0.00 0.00
6:53 am 06:53 Clear 18 -7.8 14 -10 84 84 SSE 9 15 30.24 1024 10 16 0.00 0.00
7:53 am 07:53 Sunny 17 -8.3 14 -10 88 88 SSE 10 17 30.22 1023 10 16 0.00 0.00
8:53 am 08:53 Sunny 22 -5.6 17 -8.3 82 82 SSE 13 20 30.18 1022 10 16 0.00 0.00
9:53 am 09:53 Sunny 26 -3.3 19 -7.2 75 75 SSE 13 20 30.15 1021 10 16 0.00 0.00
10:53 am 10:53 Sunny 30 -1.1 22 -5.6 72 72 SSE 12 19 30.11 1020 10 16 0.00 0.00
11:53 am 11:53 Sunny 34 1.1 25 -3.9 70 70 S 12 19 30.08 1019 10 16 0.00 0.00
12:53 pm 12:53 Sunny 38 3.3 27 -2.8 65 65 SSW 18 30 30.02 1017 10 16 0.00 0.00
1:53 pm 13:53 Sunny 40 4.4 29 -1.7 65 65 SSW 17 28 30.01 1016 10 16 0.00 0.00
2:53 pm 14:53 Sunny 39 3.9 29 -1.7 67 67 SW 16 26 29.99 1016 10 16 0.00 0.00
3:53 pm 15:53 Sunny 38 3.3 30 -1.1 73 73 SSW 13 20 29.98 1015 10 16 0.00 0.00
4:53 pm 16:53 Sunny 37 2.8 30 -1.1 76 76 SW 8 13 29.99 1016 10 16 0.00 0.00
5:53 pm 17:53 Mostly Clear 34 1.1 29 -1.7 82 82 S 5 7 29.98 1015 10 16 0.00 0.00
6:53 pm 18:53 Clear 29 -1.7 26 -3.3 89 89 S 8 13 29.97 1015 10 16 0.00 0.00
7:53 pm 19:53 Clear 29 -1.7 27 -2.8 92 92 S 7 11 29.97 1015 10 16 0.00 0.00
8:53 pm 20:53 Clear 28 -2.2 27 -2.8 96 96 SSW 7 11 29.93 1014 10 16 0.00 0.00
9:53 pm 21:53 Clear 31 -0.6 28 -2.2 89 89 SW 9 15 29.92 1013 10 16 0.00 0.00
10:53 pm 22:53 Clear 35 1.7 29 -1.7 78 78 WSW 13 20 29.90 1013 10 16 0.00 0.00
11:53 pm 23:53 Clear 39 3.9 30 -1.1 70 70 WNW 13 20 29.88 1012 10 16 0.00 0.00

Powered by AerisWeather